SV7RNH Weather Reports


Display with metric or nautical units.
time (UTC)temp
F
wind
direction
speed
MPH
gust
MPH
rain 1hr
in
rain 24hr
in
rain mn
in
humidity
%
barometer
mb
20260901225003 82 0 0.0 2.0 0.00 0.00 0.00 57 1016.3
20260901224503 82 0 0.0 2.0 0.00 0.00 0.00 57 1016.2
20260901224003 82 235 1.0 3.0 0.00 0.00 0.00 57 1016.3
20260901223503 82 0 0.0 3.0 0.00 0.00 0.00 57 1016.3
20260901223004 82 0 0.0 4.0 0.00 0.00 0.00 57 1016.2
20260901222503 82 0 0.0 4.0 0.00 0.00 0.00 58 1016.2
20260901222003 82 0 0.0 2.0 0.00 0.00 0.00 58 1016.2
20260901221504 82 0 0.0 2.0 0.00 0.00 0.00 58 1016.2
20260901221003 82 0 0.0 2.0 0.00 0.00 0.00 58 1016.2
20260901220503 82 0 0.0 2.0 0.00 0.00 0.00 57 1016.2
20260901220003 82 0 0.0 2.0 0.00 0.00 0.00 57 1016.2
20260901215504 82 0 0.0 2.0 0.00 0.00 0.00 57 1016.2
20260901215003 83 0 0.0 2.0 0.00 0.00 0.00 57 1016.1
20260901214503 83 174 1.0 3.0 0.00 0.00 0.00 57 1016.2
20260901214004 83 262 1.0 3.0 0.00 0.00 0.00 57 1016.2
20260901213503 83 0 0.0 4.0 0.00 0.00 0.00 57 1016.2
20260901213003 83 0 0.0 4.0 0.00 0.00 0.00 57 1016.2
20260901212503 83 257 1.0 4.0 0.00 0.00 0.00 57 1016.1
20260901212004 83 0 0.0 4.0 0.00 0.00 0.00 57 1016.1
20260901211503 83 0 0.0 4.0 0.00 0.00 0.00 57 1016.0
20260901211004 83 0 0.0 4.0 0.00 0.00 0.00 57 1016.1
20260901210503 84 271 1.0 3.0 0.00 0.00 0.00 57 1015.9
20260901210003 84 0 0.0 3.0 0.00 0.00 0.00 57 1015.8
20260901205504 84 0 0.0 4.0 0.00 0.00 0.00 57 1015.9
20260901205003 84 246 2.0 4.0 0.00 0.00 0.00 57 1015.9
20260901204503 84 0 0.0 2.0 0.00 0.00 0.00 57 1015.8
20260901204003 84 0 0.0 2.0 0.00 0.00 0.00 57 1015.8
20260901203504 84 0 0.0 2.0 0.00 0.00 0.00 57 1015.8
20260901203003 84 0 0.0 2.0 0.00 0.00 0.00 56 1015.8
20260901202503 84 0 0.0 2.0 0.00 0.00 0.00 56 1015.7
20260901202003 84 0 0.0 3.0 0.00 0.00 0.00 56 1015.6
20260901201503 84 0 0.0 3.0 0.00 0.00 0.00 56 1015.6
20260901201003 85 247 1.0 3.0 0.00 0.00 0.00 55 1015.7
20260901200504 85 225 1.0 2.0 0.00 0.00 0.00 55 1015.7
20260901200004 85 0 0.0 2.0 0.00 0.00 0.00 54 1015.7
20260901195503 85 0 0.0 3.0 0.00 0.00 0.00 54 1015.7
20260901195003 85 265 1.0 3.0 0.00 0.00 0.00 53 1015.7
20260901194504 85 225 1.0 2.0 0.00 0.00 0.00 52 1015.7
20260901194004 85 0 0.0 1.0 0.00 0.00 0.00 50 1015.6
20260901193504 85 0 0.0 2.0 0.00 0.00 0.00 50 1015.6
20260901193003 85 0 0.0 2.0 0.00 0.00 0.00 50 1015.8
20260901192503 85 0 0.0 2.0 0.00 0.00 0.00 50 1015.6
20260901192004 85 0 0.0 2.0 0.00 0.00 0.00 50 1015.5
20260901191503 85 0 0.0 2.0 0.00 0.00 0.00 50 1015.5
20260901191005 85 0 0.0 3.0 0.00 0.00 0.00 50 1015.5
20260901190503 85 0 0.0 3.0 0.00 0.00 0.00 50 1015.6
20260901190004 85 0 0.0 2.0 0.00 0.00 0.00 50 1015.5
20260901185503 85 0 0.0 4.0 0.00 0.00 0.00 50 1015.5
20260901185003 85 0 0.0 4.0 0.00 0.00 0.00 49 1015.4
20260901184503 86 0 0.0 3.0 0.00 0.00 0.00 49 1015.4
20260901184003 86 0 0.0 2.0 0.00 0.00 0.00 49 1015.3
20260901183503 86 0 0.0 2.0 0.00 0.00 0.00 48 1015.1
20260901183004 86 0 0.0 2.0 0.00 0.00 0.00 48 1015.1
20260901182504 86 0 0.0 2.0 0.00 0.00 0.00 48 1014.8
20260901182003 86 0 0.0 2.0 0.00 0.00 0.00 47 1014.8
20260901181503 86 0 0.0 2.0 0.00 0.00 0.00 47 1014.7
20260901181003 86 0 0.0 4.0 0.00 0.00 0.00 47 1014.6
20260901180503 86 284 1.0 4.0 0.00 0.00 0.00 46 1014.5
20260901180003 87 300 2.0 4.0 0.00 0.00 0.00 46 1014.5
20260901175504 87 0 0.0 2.0 0.00 0.00 0.00 46 1014.4
20260901175003 87 0 0.0 3.0 0.00 0.00 0.00 45 1014.3
20260901174503 87 0 0.0 3.0 0.00 0.00 0.00 45 1014.2
20260901174004 87 3 2.0 3.0 0.00 0.00 0.00 45 1014.2
20260901173503 87 0 0.0 4.0 0.00 0.00 0.00 45 1014.2
20260901173003 87 0 0.0 4.0 0.00 0.00 0.00 45 1014.1
20260901172503 87 131 2.0 4.0 0.00 0.00 0.00 46 1014.1
20260901172003 87 115 2.0 4.0 0.00 0.00 0.00 46 1014.2
20260901171503 87 133 2.0 4.0 0.00 0.00 0.00 46 1014.1
20260901171003 87 170 2.0 4.0 0.00 0.00 0.00 46 1014.2
20260901170504 87 172 2.0 6.0 0.00 0.00 0.00 46 1014.2
20260901170004 87 149 2.0 6.0 0.00 0.00 0.00 46 1014.3
20260901165503 87 0 0.0 5.0 0.00 0.00 0.00 48 1014.3
20260901165004 87 108 1.0 5.0 0.00 0.00 0.00 48 1014.3
20260901164503 87 0 0.0 6.0 0.00 0.00 0.00 48 1014.2
20260901164004 87 126 3.0 8.0 0.00 0.00 0.00 48 1014.3
20260901163503 88 142 2.0 9.0 0.00 0.00 0.00 47 1014.1
20260901163004 88 149 3.0 9.0 0.00 0.00 0.00 46 1014.1
20260901162504 88 167 2.0 8.0 0.00 0.00 0.00 45 1014.0
20260901162004 89 27 2.0 7.0 0.00 0.00 0.00 44 1014.1
20260901161504 89 84 2.0 7.0 0.00 0.00 0.00 42 1014.1
20260901161003 89 275 1.0 7.0 0.00 0.00 0.00 42 1014.0
20260901160503 90 0 0.0 6.0 0.00 0.00 0.00 42 1014.0
20260901160004 90 156 2.0 8.0 0.00 0.00 0.00 42 1013.9
20260901155503 90 141 2.0 8.0 0.00 0.00 0.00 40 1013.8
20260901155004 90 266 2.0 8.0 0.00 0.00 0.00 40 1013.9
20260901154503 91 301 2.0 8.0 0.00 0.00 0.00 39 1013.9
20260901154003 91 290 1.0 8.0 0.00 0.00 0.00 37 1014.0
20260901153504 92 198 3.0 8.0 0.00 0.00 0.00 36 1013.9
20260901153003 92 151 2.0 8.0 0.00 0.00 0.00 34 1013.8
20260901152504 92 137 2.0 8.0 0.00 0.00 0.00 35 1013.9
20260901152004 93 142 5.0 8.0 0.00 0.00 0.00 35 1013.9
20260901151503 93 261 1.0 8.0 0.00 0.00 0.00 40 1013.8
20260901151003 93 246 4.0 8.0 0.00 0.00 0.00 39 1013.9
20260901150503 94 260 4.0 8.0 0.00 0.00 0.00 38 1013.9
20260901150003 94 301 2.0 8.0 0.00 0.00 0.00 37 1013.9
20260901145504 94 300 2.0 8.0 0.00 0.00 0.00 35 1013.8
20260901145003 94 281 2.0 9.0 0.00 0.00 0.00 34 1013.8
20260901144503 95 274 4.0 9.0 0.00 0.00 0.00 33 1013.9
20260901144004 96 295 2.0 6.0 0.00 0.00 0.00 32 1014.0
20260901143504 96 321 4.0 6.0 0.00 0.00 0.00 30 1014.0
20260901143003 97 218 3.0 6.0 0.00 0.00 0.00 30 1014.0
20260901142504 97 239 2.0 7.0 0.00 0.00 0.00 29 1013.9
20260901142003 97 288 2.0 8.0 0.00 0.00 0.00 30 1013.9
20260901141503 96 304 3.0 8.0 0.00 0.00 0.00 30 1014.0
20260901141003 97 353 4.0 8.0 0.00 0.00 0.00 29 1013.9
20260901140504 97 351 3.0 8.0 0.00 0.00 0.00 29 1014.0
20260901140004 97 289 3.0 8.0 0.00 0.00 0.00 29 1014.2
20260901135503 97 252 2.0 8.0 0.00 0.00 0.00 29 1014.0
20260901135004 96 249 4.0 11.0 0.00 0.00 0.00 29 1014.1
20260901134503 97 274 3.0 11.0 0.00 0.00 0.00 31 1014.1
20260901134003 96 319 2.0 9.0 0.00 0.00 0.00 31 1014.2
20260901133503 96 302 2.0 11.0 0.00 0.00 0.00 29 1014.2
20260901133004 96 273 4.0 11.0 0.00 0.00 0.00 29 1014.4
20260901132503 96 253 4.0 8.0 0.00 0.00 0.00 30 1014.2
20260901132003 97 266 3.0 8.0 0.00 0.00 0.00 30 1014.2
20260901131503 97 271 2.0 10.0 0.00 0.00 0.00 29 1014.3
20260901131004 96 246 4.0 10.0 0.00 0.00 0.00 30 1014.3
20260901130503 97 237 2.0 8.0 0.00 0.00 0.00 27 1014.3
20260901130004 97 290 2.0 8.0 0.00 0.00 0.00 27 1014.4
20260901125503 98 278 2.0 8.0 0.00 0.00 0.00 26 1014.4
20260901125004 99 237 2.0 7.0 0.00 0.00 0.00 24 1014.5
20260901124504 99 126 2.0 7.0 0.00 0.00 0.00 23 1014.6
20260901124003 98 281 2.0 7.0 0.00 0.00 0.00 25 1014.6
20260901123504 98 257 3.0 7.0 0.00 0.00 0.00 26 1014.7
20260901123003 98 118 2.0 6.0 0.00 0.00 0.00 25 1014.6
20260901122503 98 274 3.0 7.0 0.00 0.00 0.00 26 1014.7
20260901122003 97 286 2.0 8.0 0.00 0.00 0.00 27 1014.7
20260901121504 97 280 2.0 8.0 0.00 0.00 0.00 26 1014.8
20260901121003 98 334 3.0 6.0 0.00 0.00 0.00 24 1015.0
20260901120505 97 338 2.0 6.0 0.00 0.00 0.00 26 1015.0
20260901120003 97 297 2.0 8.0 0.00 0.00 0.00 27 1015.0
20260901115503 96 244 2.0 8.0 0.00 0.00 0.00 29 1015.1
20260901115004 96 240 3.0 7.0 0.00 0.00 0.00 30 1015.1
20260901114503 96 170 2.0 9.0 0.00 0.00 0.00 32 1015.1
20260901114004 95 172 3.0 9.0 0.00 0.00 0.00 33 1015.1
20260901113503 95 274 4.0 9.0 0.00 0.00 0.00 34 1015.2
20260901113003 95 273 4.0 8.0 0.00 0.00 0.00 34 1015.1
20260901112504 95 266 4.0 8.0 0.00 0.00 0.00 34 1015.1
20260901112003 96 264 2.0 8.0 0.00 0.00 0.00 33 1015.2
20260901111503 96 254 2.0 7.0 0.00 0.00 0.00 32 1015.2
20260901111004 96 260 4.0 8.0 0.00 0.00 0.00 29 1015.2
20260901110504 96 207 3.0 8.0 0.00 0.00 0.00 28 1015.2
20260901110003 96 341 2.0 8.0 0.00 0.00 0.00 28 1015.2
20260901105503 96 289 2.0 9.0 0.00 0.00 0.00 29 1015.2
20260901105004 96 277 3.0 9.0 0.00 0.00 0.00 27 1015.3
20260901104503 97 249 4.0 8.0 0.00 0.00 0.00 26 1015.3
20260901104003 97 118 2.0 7.0 0.00 0.00 0.00 26 1015.3
20260901103504 97 291 1.0 8.0 0.00 0.00 0.00 25 1015.3
20260901103003 97 266 2.0 8.0 0.00 0.00 0.00 25 1015.4
20260901102504 97 226 2.0 8.0 0.00 0.00 0.00 24 1015.4
20260901102004 98 206 2.0 8.0 0.00 0.00 0.00 23 1015.5
20260901101503 98 312 1.0 7.0 0.00 0.00 0.00 24 1015.5
20260901101004 98 250 1.0 8.0 0.00 0.00 0.00 24 1015.5
20260901100503 97 243 2.0 8.0 0.00 0.00 0.00 24 1015.6
20260901100003 97 267 2.0 8.0 0.00 0.00 0.00 24 1015.5
20260901095505 98 279 4.0 8.0 0.00 0.00 0.00 22 1015.5
20260901095003 97 286 1.0 8.0 0.00 0.00 0.00 22 1015.5
20260901094503 96 258 1.0 8.0 0.00 0.00 0.00 21 1015.5
20260901094004 96 260 2.0 6.0 0.00 0.00 0.00 25 1015.5
20260901093503 96 270 4.0 8.0 0.00 0.00 0.00 25 1015.6
20260901093004 96 260 2.0 8.0 0.00 0.00 0.00 28 1015.6
20260901092503 97 272 2.0 5.0 0.00 0.00 0.00 27 1015.7
20260901092004 96 264 1.0 6.0 0.00 0.00 0.00 28 1015.7
20260901091503 96 243 2.0 6.0 0.00 0.00 0.00 29 1015.7
20260901091004 96 153 2.0 4.0 0.00 0.00 0.00 29 1015.8
20260901090503 96 146 2.0 4.0 0.00 0.00 0.00 30 1015.7
20260901090004 95 179 2.0 6.0 0.00 0.00 0.00 30 1016.0
20260901085503 95 214 2.0 6.0 0.00 0.00 0.00 30 1015.9
20260901085003 95 274 2.0 6.0 0.00 0.00 0.00 30 1015.9
20260901084504 95 0 0.0 6.0 0.00 0.00 0.00 32 1016.0
20260901084004 94 276 2.0 6.0 0.00 0.00 0.00 32 1015.8
20260901083504 94 170 3.0 6.0 0.00 0.00 0.00 33 1015.7
20260901083004 93 163 2.0 5.0 0.00 0.00 0.00 35 1015.7
20260901082504 92 0 0.0 7.0 0.00 0.00 0.00 37 1015.7
20260901082003 92 276 3.0 7.0 0.00 0.00 0.00 37 1015.6
20260901081504 93 77 1.0 6.0 0.00 0.00 0.00 38 1015.7
20260901081004 93 129 2.0 6.0 0.00 0.00 0.00 38 1015.7
20260901080503 92 0 0.0 5.0 0.00 0.00 0.00 39 1015.6
20260901080003 92 86 1.0 5.0 0.00 0.00 0.00 41 1015.7
20260901075504 91 271 2.0 5.0 0.00 0.00 0.00 41 1015.7
20260901075004 91 219 1.0 7.0 0.00 0.00 0.00 40 1015.7
20260901074503 91 0 0.0 7.0 0.00 0.00 0.00 41 1015.8
20260901074004 91 273 2.0 7.0 0.00 0.00 0.00 40 1015.7
20260901073504 91 319 1.0 5.0 0.00 0.00 0.00 40 1015.7
20260901073003 91 278 2.0 5.0 0.00 0.00 0.00 39 1015.7
20260901072504 90 0 0.0 5.0 0.00 0.00 0.00 39 1015.7
20260901072004 90 261 1.0 5.0 0.00 0.00 0.00 39 1015.8
20260901071504 90 245 2.0 4.0 0.00 0.00 0.00 39 1015.7
20260901071003 89 0 0.0 4.0 0.00 0.00 0.00 40 1015.8
20260901070503 89 261 1.0 4.0 0.00 0.00 0.00 40 1015.6
20260901070003 90 349 2.0 4.0 0.00 0.00 0.00 40 1015.5
20260901065503 90 140 1.0 2.0 0.00 0.00 0.00 40 1015.5
20260901065004 89 0 0.0 2.0 0.00 0.00 0.00 40 1015.5
20260901064503 89 104 1.0 2.0 0.00 0.00 0.00 41 1015.6
20260901064003 88 0 0.0 2.0 0.00 0.00 0.00 42 1015.6
20260901063503 87 0 0.0 2.0 0.00 0.00 0.00 44 1015.6
20260901063004 87 63 1.0 3.0 0.00 0.00 0.00 46 1015.4
20260901062503 87 0 0.0 3.0 0.00 0.00 0.00 46 1015.4
20260901062004 86 64 1.0 3.0 0.00 0.00 0.00 48 1015.4
20260901061504 86 0 0.0 3.0 0.00 0.00 0.00 49 1015.5
20260901061003 85 0 0.0 2.0 0.00 0.00 0.00 50 1015.5
20260901060503 85 0 0.0 4.0 0.00 0.00 0.00 50 1015.6
20260901060003 85 0 0.0 4.0 0.00 0.00 0.00 50 1015.6
20260901055504 84 0 0.0 3.0 0.00 0.00 0.00 51 1015.5
20260901055004 84 229 1.0 2.0 0.00 0.00 0.00 52 1015.5
20260901054504 84 0 0.0 2.0 0.00 0.00 0.00 53 1015.6
20260901054003 83 0 0.0 2.0 0.00 0.00 0.00 54 1015.7
20260901053504 83 0 0.0 3.0 0.00 0.00 0.00 55 1015.7
20260901053003 82 0 0.0 3.0 0.00 0.00 0.00 55 1015.7
20260901052503 82 0 0.0 2.0 0.00 0.00 0.00 56 1015.6
20260901052004 81 0 0.0 3.0 0.00 0.00 0.00 56 1015.5
20260901051504 80 0 0.0 4.0 0.00 0.00 0.00 56 1015.7
20260901051003 80 252 1.0 4.0 0.00 0.00 0.00 56 1015.6
20260901050503 80 0 0.0 3.0 0.00 0.00 0.00 58 1015.6
20260901050004 80 0 0.0 3.0 0.00 0.00 0.00 58 1015.5
20260901045503 79 315 1.0 2.0 0.00 0.00 0.00 58 1015.5
20260901045003 79 0 0.0 3.0 0.00 0.00 0.00 59 1015.5
20260901044506 79 0 0.0 4.0 0.00 0.00 0.00 59 1015.4
20260901044004 79 234 2.0 4.0 0.00 0.00 0.00 59 1015.4
20260901043503 79 0 0.0 2.0 0.00 0.00 0.00 59 1015.3
20260901043003 79 0 0.0 2.0 0.00 0.00 0.00 59 1015.3
20260901042503 78 0 0.0 2.0 0.00 0.00 0.00 59 1015.2
20260901042003 78 0 0.0 2.0 0.00 0.00 0.00 59 1015.1
20260901041503 78 0 0.0 3.0 0.00 0.00 0.00 59 1015.0
20260901041004 78 0 0.0 3.0 0.00 0.00 0.00 59 1015.1
20260901040503 78 32 1.0 4.0 0.00 0.00 0.00 59 1014.9
20260901040003 78 0 0.0 4.0 0.00 0.00 0.00 59 1014.9
20260901035504 78 0 0.0 3.0 0.00 0.00 0.00 59 1014.8
20260901035003 78 0 0.0 3.0 0.00 0.00 0.00 59 1014.8
20260901034503 78 0 0.0 2.0 0.00 0.00 0.00 58 1014.8
20260901034004 78 202 1.0 3.0 0.00 0.00 0.00 58 1014.7
20260901033504 78 259 1.0 3.0 0.00 0.00 0.00 57 1014.7
20260901033003 78 340 1.0 4.0 0.00 0.00 0.00 57 1014.7
20260901032503 78 359 1.0 4.0 0.00 0.00 0.00 57 1014.7
20260901032004 78 0 0.0 3.0 0.00 0.00 0.00 58 1014.7
20260901031504 78 0 0.0 2.0 0.00 0.00 0.00 58 1014.7
20260901031003 78 0 0.0 3.0 0.00 0.00 0.00 58 1014.6
20260901030503 78 0 0.0 4.0 0.00 0.00 0.00 58 1014.7
20260901030004 78 0 0.0 4.0 0.00 0.00 0.00 58 1014.7
20260901025503 78 24 2.0 4.0 0.00 0.00 0.00 58 1014.7
20260901025003 78 30 2.0 4.0 0.00 0.00 0.00 58 1014.8
20260901024503 78 0 0.0 4.0 0.00 0.00 0.00 57 1014.9
20260901024003 78 0 0.0 4.0 0.00 0.00 0.00 57 1014.9
20260901023503 78 0 0.0 4.0 0.00 0.00 0.00 57 1014.9
20260901023003 78 102 1.0 3.0 0.00 0.00 0.00 57 1014.9
20260901022503 78 0 0.0 3.0 0.00 0.00 0.00 57 1015.0
20260901022004 78 0 0.0 3.0 0.00 0.00 0.00 56 1014.9
20260901021503 78 32 2.0 4.0 0.00 0.00 0.00 56 1014.9
20260901021003 78 350 1.0 4.0 0.00 0.00 0.00 56 1014.8
20260901020504 78 0 0.0 2.0 0.00 0.00 0.00 57 1015.0
20260901020003 78 0 0.0 2.0 0.00 0.00 0.00 57 1015.0
20260901015503 78 0 0.0 4.0 0.00 0.00 0.00 57 1015.0
20260901015003 79 0 0.0 4.0 0.00 0.00 0.00 56 1015.0
20260901014504 79 0 0.0 3.0 0.00 0.00 0.00 56 1015.1
20260901014003 78 0 0.0 4.0 0.00 0.00 0.00 56 1015.2
20260901013504 79 0 0.0 4.0 0.00 0.00 0.00 56 1015.1
20260901013003 79 40 2.0 5.0 0.00 0.00 0.00 56 1015.2
20260901012503 79 35 1.0 5.0 0.00 0.00 0.00 56 1015.2
20260901012004 79 31 1.0 4.0 0.00 0.00 0.00 56 1015.2
20260901011503 79 0 0.0 4.0 0.00 0.00 0.00 56 1015.3
20260901011004 79 0 0.0 4.0 0.00 0.00 0.00 56 1015.3
20260901010504 79 338 2.0 4.0 0.00 0.00 0.00 56 1015.3
20260901010004 79 350 2.0 3.0 0.00 0.00 0.00 56 1015.5
20260901005503 79 23 2.0 3.0 0.00 0.00 0.00 56 1015.5
20260901005004 79 0 0.0 4.0 0.00 0.00 0.00 56 1015.5
20260901004504 79 0 0.0 4.0 0.00 0.00 0.00 56 1015.3
20260901004003 79 0 0.0 2.0 0.00 0.00 0.00 56 1015.6
20260901003503 79 0 0.0 3.0 0.00 0.00 0.00 55 1015.5
20260901003004 79 0 0.0 3.0 0.00 0.00 0.00 55 1015.3
20260901002504 79 0 0.0 2.0 0.00 0.00 0.00 55 1015.5
20260901002004 79 0 0.0 2.0 0.00 0.00 0.00 55 1015.4
20260901001503 79 0 0.0 2.0 0.00 0.00 0.00 55 1015.5
20260901001004 79 0 0.0 2.0 0.00 0.00 0.00 55 1015.4
20260901000503 79 0 0.0 2.0 0.00 0.00 0.00 55 1015.3
20260901000003 79 0 0.0 2.0 0.00 0.00 0.00 55 1015.1
20260831235503 79 0 0.0 4.0 0.00 0.00 0.00 54 1015.1
20260831235004 79 0 0.0 4.0 0.00 0.00 0.00 54 1015.0
20260831234503 79 52 1.0 4.0 0.00 0.00 0.00 54 1015.1
20260831234003 79 0 0.0 4.0 0.00 0.00 0.00 54 1015.3
20260831233503 80 27 1.0 3.0 0.00 0.00 0.00 54 1015.3
20260831233004 80 0 0.0 3.0 0.00 0.00 0.00 54 1015.3
20260831232503 80 0 0.0 3.0 0.00 0.00 0.00 54 1015.3
20260831232004 80 0 0.0 4.0 0.00 0.00 0.00 54 1015.5
20260831231503 80 37 2.0 4.0 0.00 0.00 0.00 53 1015.4
20260831231003 80 0 0.0 2.0 0.00 0.00 0.00 54 1015.3
20260831230504 80 0 0.0 4.0 0.00 0.00 0.00 54 1015.5
20260831230003 80 60 1.0 4.0 0.00 0.00 0.00 54 1015.4
20260831225504 80 48 1.0 4.0 0.00 0.00 0.00 53 1015.5